Location: D�rnast
(49.6426°N, 11.9755°E)
Time: 11:53:31
(UTC+00:00)

N. Korean satellite - Pass Details

Date: 06 December 2021
Orbit: 447 x 490 km, 97.3° (Epoch: 27 January)

Event Time Altitude Azimuth Distance (km) Brightness Sun altitude
Rises 03:51:17 0° 23° (NNE) 2,468 10.4 -28.4°
Reaches altitude 10° 03:53:36 10° 38° (NE) 1,586 9.6 -28.1°
Maximum altitude 03:56:26 25° 95° (E) 961 8.7 -27.6°
Drops below altitude 10° 03:59:16 10° 152° (SSE) 1,573 9.5 -27.1°
Sets 04:01:32 0° 166° (SSE) 2,440 10.3 -26.8°
